Weather History for Cumberland, MD

Change the Weather History Date:

Sunday, February 3, 2013

  Actual Average (KMRB) Record (KMRB)
Temperature  
Mean Temperature 28 °F 32 °F  
Max Temperature 33 °F 41 °F 65 °F (1991)
Min Temperature 23 °F 23 °F -1 °F (1949)
Degree Days  
Heating Degree Days 37 33  
Month to date heating degree days 99  
Since 1 July heating degree days 3182  
Cooling Degree Days 0 0  
Month to date cooling degree days 0  
Year to date cooling degree days 0  
Moisture  
Dew Point 23 °F    
Average Humidity 86    
Maximum Humidity 100    
Minimum Humidity 59    
Precipitation  
Precipitation 0.00 in 0.08 in 1.10 in (1961)
Month to date precipitation 0.25  
Year to date precipitation 2.69  
Sea Level Pressure  
Sea Level Pressure 29.92 in    
Wind  
Wind Speed 3 mph (WSW)    
Max Wind Speed 16 mph    
Max Gust Speed 32 mph    
Visibility 7 miles    
Events      
T = Trace of Precipitation, MM = Missing Value Source: NWS Daily Summary

Daily Weather History Graph

Daily Weather History Graph

Search for Another Location

Airport:

Trip Planner

Search our weather history database for the weather conditions in past years. The results will help you decide how hot, cold, wet, or windy it might be!

Date:

Astronomy

Feb. 03, 2013 Rise Set
Actual Time 7:20 AM EST 5:37 PM EST
Civil Twilight 6:52 AM EST 6:06 PM EST
Nautical Twilight 6:20 AM EST 6:38 PM EST
Astronomical Twilight 5:48 AM EST 7:09 PM EST
Moon 12:46 AM EST (2/3) 11:13 AM EST (2/3)
Length of Visible Light 11h 13m
Length of Day
10h 17m
Waning Gibbous, 49% of the Moon is Illuminated
Feb 3
Waning Gibbous
Feb 10
New
Feb 17
First Quarter
Feb 25
Full
Mar 4
Last Quarter

Hourly Weather History & Observations

Time (EST) Temp. Windchill Dew Point Humidity Pressure Visibility Wind Dir Wind Speed Gust Speed Precip Events Conditions
12:14 AM 23.0 °F - 23.0 °F 100% 30.01 in 4.0 mi Calm Calm - N/A   Overcast
12:35 AM 23.0 °F - 23.0 °F 100% 30.01 in 7.0 mi Calm Calm - N/A   Overcast
12:56 AM 23.0 °F - 23.0 °F 100% 30.00 in 7.0 mi Calm Calm - N/A   Scattered Clouds
1:18 AM 23.0 °F - 23.0 °F 100% 29.99 in 7.0 mi Calm Calm - N/A   Mostly Cloudy
1:39 AM 23.0 °F - 23.0 °F 100% 29.99 in 5.0 mi Calm Calm - N/A   Overcast
2:00 AM 23.0 °F - 23.0 °F 100% 29.98 in 4.0 mi Calm Calm - N/A   Overcast
2:22 AM 23.0 °F - 23.0 °F 100% 29.97 in 4.0 mi Calm Calm - N/A   Overcast
2:43 AM 23.0 °F - 23.0 °F 100% 29.97 in 3.0 mi Calm Calm - N/A   Overcast
3:04 AM 23.0 °F - 23.0 °F 100% 29.96 in 3.0 mi Calm Calm - N/A   Overcast
3:26 AM 24.8 °F - 24.8 °F 100% 29.95 in 3.0 mi Calm Calm - N/A   Overcast
3:47 AM 23.0 °F - 23.0 °F 100% 29.94 in 3.0 mi Calm Calm - N/A   Overcast
4:08 AM 23.0 °F - 23.0 °F 100% 29.93 in 3.0 mi Calm Calm - N/A   Overcast
4:30 AM 23.0 °F - 23.0 °F 100% 29.92 in 3.0 mi Calm Calm - N/A   Overcast
4:51 AM 23.0 °F - 23.0 °F 100% 29.92 in 2.5 mi Calm Calm - N/A   Overcast
5:12 AM 23.0 °F - 23.0 °F 100% 29.92 in 3.0 mi Calm Calm - N/A   Overcast
5:34 AM 23.0 °F - 23.0 °F 100% 29.92 in 2.5 mi Calm Calm - N/A   Overcast
5:55 AM 23.0 °F - 23.0 °F 100% 29.92 in 2.5 mi Calm Calm - N/A   Overcast
6:16 AM 23.0 °F - 23.0 °F 100% 29.92 in 3.0 mi Calm Calm - N/A   Overcast
6:38 AM 23.0 °F - 23.0 °F 100% 29.92 in 4.0 mi Calm Calm - N/A   Overcast
6:59 AM 23.0 °F - 23.0 °F 100% 29.92 in 2.0 mi Calm Calm - N/A   Overcast
7:20 AM 23.0 °F - 23.0 °F 100% 29.92 in 3.0 mi Calm Calm - N/A   Overcast
7:41 AM 23.0 °F - 23.0 °F 100% 29.92 in 3.0 mi Calm Calm - N/A   Overcast
8:03 AM 23.0 °F - 23.0 °F 100% 29.93 in 2.5 mi Calm Calm - N/A   Overcast
8:24 AM 23.0 °F - 23.0 °F 100% 29.93 in 2.5 mi Calm Calm - N/A   Overcast
8:45 AM 24.8 °F - 24.8 °F 100% 29.93 in 3.0 mi Calm Calm - N/A   Overcast
9:06 AM 24.8 °F - 24.8 °F 100% 29.93 in 3.0 mi Calm Calm - N/A   Overcast
9:28 AM 26.6 °F - 26.6 °F 100% 29.92 in 4.0 mi Calm Calm - N/A   Scattered Clouds
9:49 AM 26.6 °F 21.2 °F 26.6 °F 100% 29.92 in 7.0 mi South 4.6 mph - N/A   Scattered Clouds
10:10 AM 26.6 °F - 26.6 °F 100% 29.92 in 10.0 mi Calm Calm - N/A   Scattered Clouds
10:32 AM 26.6 °F - 26.6 °F 100% 29.92 in 10.0 mi Calm Calm - N/A   Scattered Clouds
10:53 AM 28.4 °F - 28.4 °F 100% 29.91 in 7.0 mi Calm Calm - N/A   Scattered Clouds
11:14 AM 30.2 °F 26.7 °F 28.4 °F 93% 29.90 in 10.0 mi SSE 3.5 mph - N/A   Clear
11:35 AM 30.2 °F 26.7 °F 28.4 °F 93% 29.88 in 10.0 mi SSE 3.5 mph - N/A   Scattered Clouds
11:57 AM 30.2 °F 26.7 °F 28.4 °F 93% 29.87 in 10.0 mi SSE 3.5 mph - N/A   Mostly Cloudy
12:18 PM 32.0 °F - 28.4 °F 87% 29.87 in 10.0 mi Calm Calm - N/A   Scattered Clouds
12:39 PM 32.0 °F 28.7 °F 28.4 °F 87% 29.85 in 10.0 mi South 3.5 mph - N/A   Scattered Clouds
1:00 PM 32.0 °F - 24.8 °F 75% 29.84 in 10.0 mi Calm Calm - N/A   Scattered Clouds
1:22 PM 32.0 °F - 24.8 °F 75% 29.83 in 10.0 mi Calm Calm - N/A   Clear
1:43 PM 32.0 °F 24.8 °F 23.0 °F 69% 29.83 in 10.0 mi SW 8.1 mph - N/A   Scattered Clouds
2:04 PM 32.0 °F 25.6 °F 23.0 °F 69% 29.82 in 10.0 mi West 6.9 mph - N/A   Scattered Clouds
2:26 PM 33.8 °F 29.6 °F 24.8 °F 70% 29.82 in 10.0 mi WSW 4.6 mph - N/A   Scattered Clouds
2:47 PM 32.0 °F 26.4 °F 24.8 °F 75% 29.82 in 10.0 mi SW 5.8 mph - N/A   Scattered Clouds
3:08 PM 32.0 °F 27.5 °F 24.8 °F 75% 29.82 in 10.0 mi SW 4.6 mph - N/A   Scattered Clouds
3:29 PM 32.0 °F 26.4 °F 26.6 °F 80% 29.83 in 3.0 mi NW 5.8 mph - N/A   Overcast
3:51 PM 32.0 °F 25.6 °F 26.6 °F 80% 29.84 in 10.0 mi WSW 6.9 mph - N/A   Mostly Cloudy
4:12 PM 32.0 °F 24.8 °F 24.8 °F 75% 29.84 in 10.0 mi West 8.1 mph - N/A   Scattered Clouds
4:33 PM 32.0 °F 26.4 °F 23.0 °F 69% 29.84 in 10.0 mi SW 5.8 mph - N/A   Scattered Clouds
4:54 PM 32.0 °F 25.6 °F 23.0 °F 69% 29.85 in 10.0 mi West 6.9 mph 17.3 mph N/A   Mostly Cloudy
5:16 PM 32.0 °F 24.2 °F 23.0 °F 69% 29.85 in 10.0 mi West 9.2 mph - N/A   Mostly Cloudy
5:37 PM 32.0 °F 23.6 °F 23.0 °F 69% 29.85 in 10.0 mi WSW 10.4 mph 18.4 mph N/A   Mostly Cloudy
5:58 PM 32.0 °F 24.2 °F 23.0 °F 69% 29.86 in 10.0 mi WSW 9.2 mph - N/A   Scattered Clouds
6:20 PM 32.0 °F 25.6 °F 21.2 °F 64% 29.88 in 10.0 mi WSW 6.9 mph - N/A   Scattered Clouds
6:41 PM 30.2 °F 21.9 °F 23.0 °F 75% 29.90 in 5.0 mi West 9.2 mph - N/A   Mostly Cloudy
7:02 PM 30.2 °F 19.3 °F 21.2 °F 69% 29.91 in 10.0 mi West 15.0 mph 21.9 mph N/A   Mostly Cloudy
7:23 PM 30.2 °F 20.2 °F 19.4 °F 64% 29.92 in 10.0 mi West 12.7 mph 19.6 mph N/A   Scattered Clouds
7:45 PM 28.4 °F 20.4 °F 21.2 °F 74% 29.93 in 10.0 mi West 8.1 mph - N/A   Mostly Cloudy
8:06 PM 28.4 °F 22.2 °F 21.2 °F 74% 29.95 in 10.0 mi NW 5.8 mph - N/A   Mostly Cloudy
8:27 PM 28.4 °F 17.5 °F 19.4 °F 69% 29.95 in 10.0 mi WNW 13.8 mph 18.4 mph N/A   Mostly Cloudy
8:49 PM 28.4 °F 17.0 °F 21.2 °F 74% 29.97 in 1.5 mi West 15.0 mph 20.7 mph N/A   Overcast
9:10 PM 26.6 °F 14.7 °F 19.4 °F 74% 29.97 in 10.0 mi West 15.0 mph 21.9 mph N/A   Overcast
9:31 PM 26.6 °F 15.2 °F 17.6 °F 69% 29.98 in 10.0 mi West 13.8 mph 21.9 mph N/A   Scattered Clouds
9:52 PM 26.6 °F 14.3 °F 17.6 °F 69% 29.98 in 10.0 mi West 16.1 mph 32.2 mph N/A   Scattered Clouds
10:14 PM 26.6 °F 22.6 °F 17.6 °F 69% 29.99 in 7.0 mi WSW 3.5 mph 24.2 mph N/A   Overcast
10:35 PM 26.6 °F 14.7 °F 17.6 °F 69% 30.00 in 10.0 mi West 15.0 mph 19.6 mph N/A   Mostly Cloudy
10:56 PM 26.6 °F 15.7 °F 15.8 °F 64% 30.01 in 10.0 mi West 12.7 mph - N/A   Mostly Cloudy
11:18 PM 26.6 °F 14.3 °F 14.0 °F 59% 30.01 in 10.0 mi WNW 16.1 mph 25.3 mph N/A   Mostly Cloudy
11:39 PM 24.8 °F 15.3 °F 14.0 °F 64% 30.03 in 10.0 mi WSW 9.2 mph - N/A   Mostly Cloudy